Wind_Speed
32 31 30 29 30 31 30 30 30 32 31 30 30 30 29 29 28 28 28 27 26 25 25 25 24 25 26 27 28 28 28 27 27 27 28 30 33 36 40 43 42 41 40 39
32 31 30 30 30 31 31 31 31 33 34 34 34 33 32 32 32 31 31 30 30 30 30 29 28 27 28 29 29 30 30 30 30 30 31 33 35 38 41 42 43 42 39 34
32 30 30 30 30 30 31 31 32 34 36 37 36 35 36 37 36 35 34 34 34 34 34 33 32 30 30 29 30 31 31 32 33 34 35 36 38 40 41 43 43 42 38 34
33 32 30 30 30 30 30 31 32 34 36 38 39 36 36 40 39 38 38 37 37 37 37 36 34 32 31 31 31 32 33 34 35 36 38 39 40 41 42 43 42 40 38 34
32 31 30 29 29 30 30 31 32 35 36 38 38 37 35 40 40 40 40 40 40 40 39 38 35 33 33 32 33 34 35 37 38 39 40 41 42 42 43 42 42 40 37 34
31 30 30 30 30 30 30 31 32 33 35 37 36 36 34 41 39 39 39 39 39 39 39 37 36 34 33 33 34 35 37 38 39 40 41 42 42 42 42 41 40 38 37 34
28 28 28 29 29 30 30 29 29 30 32 31 32 33 34 39 36 35 36 37 37 37 36 35 34 33 33 33 33 35 36 38 39 41 42 42 42 41 40 39 38 38 37 36
22 23 25 27 27 28 28 28 27 24 22 23 29 30 36 35 33 32 31 32 32 32 32 31 31 31 31 31 32 33 36 37 39 40 41 41 40 39 38 38 38 38 39 39
17 18 21 23 24 26 27 27 27 27 25 22 23 30 34 32 31 29 28 28 28 28 27 27 27 28 28 29 30 32 34 36 37 38 39 39 40 40 40 40 40 41 42 42
14 15 17 19 21 23 25 25 27 29 25 23 23 27 30 30 29 28 27 26 26 26 25 25 26 27 28 29 31 32 34 36 37 38 39 39 40 40 41 42 43 44 45 46
12 13 14 17 19 20 23 25 27 26 24 22 20 23 28 27 27 27 26 26 25 25 25 26 27 29 30 32 33 34 35 36 37 38 39 40 41 43 44 45 47 48 49 50
11 12 14 17 19 21 22 24 25 26 26 27 24 27 27 26 26 26 26 26 27 27 28 29 31 32 33 35 36 37 38 39 40 40 41 42 44 46 47 49 50 51 52 52
11 12 13 15 19 22 24 25 27 28 28 27 25 30 31 30 29 28 28 29 30 31 33 34 35 36 37 39 40 41 42 43 43 44 45 46 47 49 50 51 52 53 53 53
12 14 15 16 19 22 24 26 28 29 27 28 29 33 33 33 33 33 34 34 35 36 37 39 40 40 42 42 43 44 45 45 46 46 47 48 50 51 52 53 54 54 54 54
14 17 18 21 22 24 25 27 28 31 32 31 33 35 35 35 35 35 36 37 38 39 41 42 42 43 43 44 44 44 45 45 46 47 49 50 51 52 53 54 54 55 55 55
15 17 19 22 24 25 27 28 30 31 33 34 35 36 37 36 37 37 37 38 39 40 41 41 41 42 42 42 42 43 44 44 45 46 48 50 51 52 53 54 54 54 54 54
16 17 19 21 22 24 27 29 31 32 33 34 35 37 37 38 38 38 39 39 39 40 40 40 40 39 39 41 41 41 42 43 45 47 49 50 51 52 53 53 53 52 52 52
16 17 18 20 21 23 27 27 29 31 33 33 35 36 37 37 37 37 38 38 38 38 37 37 37 38 39 40 40 41 43 45 47 48 49 50 50 51 51 50 50 50 50 49
15 16 17 18 19 21 24 24 25 28 30 32 33 34 35 35 35 36 35 35 35 34 34 35 36 37 38 40 42 43 45 46 47 48 48 48 48 48 48 48 47 47 47 47
15 15 16 16 16 19 21 21 22 24 28 28 29 30 30 30 31 31 31 31 32 33 35 35 37 38 40 41 42 43 44 45 45 46 46 46 46 46 45 45 45 44 44 44
15 15 14 14 15 17 16 16 17 20 23 23 24 25 25 26 27 27 28 29 30 32 33 35 36 38 39 40 42 42 43 43 43 43 44 44 43 43 43 43 42 42 42 42
15 14 13 12 13 14 13 13 15 16 18 19 21 21 22 23 24 25 26 27 29 31 32 34 35 37 38 39 39 40 40 41 41 41 41 41 41 40 40 40 40 40 40 39
14 13 11 11 12 13 13 13 13 15 16 18 19 19 20 21 23 24 25 26 28 30 31 32 33 35 36 36 37 37 37 37 38 38 38 39 39 39 39 39 38 37 36 36
13 12 11 11 11 12 12 12 13 13 14 16 17 18 19 21 22 23 24 26 27 28 29 30 31 31 31 32 33 33 34 35 36 37 37 38 38 37 36 36 34 33 31 30
12 11 11 11 11 12 13 14 14 15 16 17 18 19 20 20 21 22 22 23 24 25 25 26 26 27 28 29 30 31 33 34 35 36 36 36 35 34 32 30 28 26 24 22
12 11 11 11 11 12 13 14 14 15 16 16 17 18 18 18 19 19 20 20 20 21 21 21 22 24 25 27 29 31 32 33 34 34 33 31 30 27 25 22 20 17 16 14
Wind_Direction
228 229 230 230 228 228 226 226 227 230 235 234 235 236 238 241 243 245 246 250 255 260 264 267 270 271 272 273 274 274 274 275 278 282 287 290 292 294 296 299 300 300 300 300
229 230 230 231 230 230 229 228 228 230 234 236 238 239 241 244 246 247 250 254 257 261 265 268 271 271 271 272 272 273 274 276 279 283 288 293 295 298 300 303 305 312 315 315
229 229 229 230 231 231 231 230 230 231 234 238 241 244 247 248 249 251 253 256 260 263 266 269 271 271 269 269 270 270 271 274 278 283 288 292 295 298 300 302 307 311 317 319
226 227 228 230 231 232 232 231 231 232 234 237 240 239 246 249 251 253 256 258 261 264 266 268 269 268 267 267 267 267 269 272 277 281 285 290 293 295 298 301 304 308 314 317
224 227 228 231 232 231 232 231 232 233 235 238 244 241 243 253 253 254 257 260 262 264 266 267 268 266 265 264 264 265 266 270 273 278 282 286 289 291 294 297 301 305 312 317
223 225 227 229 231 232 232 233 234 236 238 241 243 245 242 251 254 255 257 258 261 263 265 266 266 266 264 263 263 263 265 267 271 275 279 281 284 287 290 293 296 302 309 312
225 228 229 230 232 233 233 234 236 238 241 244 244 244 241 250 253 253 254 256 259 262 264 266 265 265 265 263 262 261 262 265 269 272 276 278 281 284 287 291 294 299 304 307
226 231 232 232 234 237 236 235 234 235 243 246 249 245 246 250 252 252 253 256 259 261 263 264 264 263 262 261 260 259 261 264 267 270 273 277 280 284 288 291 295 299 302 304
221 228 234 235 234 234 235 234 232 234 234 232 241 248 250 249 250 252 254 258 261 263 263 262 261 261 259 259 259 259 261 263 266 270 273 277 282 286 289 292 296 299 301 302
217 225 234 236 237 237 234 234 233 233 233 238 245 256 257 251 252 254 257 259 261 263 262 261 260 261 260 260 260 261 262 265 268 272 276 280 284 287 290 294 297 299 300 300
219 226 234 237 237 237 238 236 236 235 233 235 243 252 256 257 256 257 258 259 261 261 262 262 262 263 263 264 265 266 268 270 273 275 279 282 285 289 293 295 297 299 299 299
224 227 232 237 238 236 236 235 236 235 239 241 236 249 254 257 259 260 260 261 261 263 264 265 266 267 269 270 271 273 274 275 276 278 281 284 287 290 293 295 296 296 297 297
236 237 238 244 244 240 238 237 236 238 240 244 245 251 255 258 260 261 262 263 264 265 266 267 269 271 273 274 275 276 276 277 278 280 282 285 288 290 292 294 294 294 295 295
245 245 240 237 240 247 245 242 240 240 243 248 248 251 256 260 262 263 264 264 265 267 269 270 271 272 273 274 275 276 276 276 278 280 282 285 287 290 291 292 292 293 293 294
256 254 251 248 249 250 248 247 245 244 243 246 250 255 259 261 262 263 264 265 267 269 270 272 273 273 274 274 275 276 278 279 281 283 284 286 288 290 290 291 291 292 292 292
269 265 262 257 253 251 251 250 250 249 250 253 254 256 258 261 263 264 265 266 268 268 270 271 273 274 274 276 277 279 279 281 283 285 286 287 288 288 289 289 290 290 291 291
278 273 268 264 261 259 255 251 251 252 252 253 255 258 260 261 261 263 265 265 267 269 271 275 277 277 277 280 281 282 283 284 285 286 287 287 287 288 288 289 290 290 291 291
290 283 276 270 267 260 259 259 255 255 257 256 256 257 259 261 263 263 264 266 268 270 272 273 273 276 279 281 282 283 284 285 287 287 288 288 288 289 289 290 290 291 292 292
297 289 283 275 270 266 263 258 256 255 257 258 259 260 261 261 262 262 263 264 267 269 272 274 276 277 279 281 283 285 287 287 288 288 288 289 289 289 289 290 291 292 292 292
305 297 289 281 271 265 266 261 256 255 255 256 257 258 260 261 262 264 265 266 267 268 273 277 280 282 284 286 287 288 288 289 289 289 289 289 290 290 291 291 292 292 293 294
311 304 294 285 275 270 269 263 257 253 255 256 256 256 257 258 261 265 266 268 271 273 277 280 282 285 286 288 289 290 290 290 291 291 291 291 291 292 292 293 293 293 294 294
315 308 298 286 278 275 275 266 257 257 257 257 259 260 261 263 264 268 271 274 276 279 281 284 286 288 289 290 290 291 291 292 292 292 292 292 292 293 293 293 294 294 294 295
317 311 300 289 282 280 276 272 266 261 260 262 264 265 267 269 272 275 278 280 282 284 286 288 290 291 292 292 293 294 294 294 294 294 294 294 294 294 294 295 295 295 295 296
319 312 300 291 285 281 280 280 275 272 269 268 269 272 274 276 279 281 283 285 287 289 290 291 293 294 295 296 296 296 297 297 297 297 297 296 296 296 296 296 296 296 296 297
318 311 300 293 286 282 282 282 280 278 276 274 275 277 280 282 284 286 288 289 290 292 293 295 296 298 299 300 301 302 302 302 301 301 300 299 298 298 298 297 297 296 296 296
315 308 299 293 288 284 284 283 283 282 280 280 281 282 283 285 287 288 290 290 292 295 298 300 302 304 306 308 308 308 308 307 306 305 304 302 301 301 299 299 298 297 297 297
Height
5808 5814 5818 5821 5825 5829 5833 5836 5839 5842 5844 5849 5851 5855 5858 5860 5863 5866 5868 5870 5873 5874 5875 5875 5876 5876 5876 5876 5875 5874 5873 5871 5869 5867 5865 5863 5861 5858 5855 5851 5847 5844 5841 5837
5803 5807 5811 5815 5819 5823 5827 5831 5834 5837 5839 5843 5845 5849 5853 5855 5857 5859 5862 5864 5866 5868 5869 5870 5870 5871 5871 5871 5870 5869 5868 5866 5865 5863 5860 5859 5856 5853 5850 5846 5843 5839 5835 5831
5796 5801 5804 5809 5813 5817 5821 5826 5829 5831 5833 5836 5840 5845 5847 5848 5850 5853 5855 5857 5859 5861 5862 5863 5864 5864 5865 5865 5865 5864 5863 5861 5860 5858 5855 5853 5850 5848 5845 5841 5838 5834 5831 5827
5789 5793 5798 5803 5807 5811 5816 5820 5823 5825 5829 5831 5834 5840 5840 5840 5842 5845 5847 5850 5851 5853 5854 5855 5856 5857 5858 5858 5858 5858 5857 5855 5854 5852 5849 5846 5844 5842 5838 5835 5832 5828 5825 5822
5784 5788 5792 5797 5801 5805 5810 5813 5817 5819 5822 5825 5827 5833 5836 5832 5834 5837 5840 5841 5843 5844 5846 5847 5848 5849 5850 5850 5851 5851 5850 5849 5847 5845 5843 5840 5837 5834 5831 5828 5825 5822 5819 5816
5778 5782 5787 5791 5795 5799 5803 5807 5810 5813 5816 5820 5822 5826 5830 5824 5827 5830 5832 5833 5834 5836 5837 5838 5840 5841 5842 5842 5843 5843 5842 5841 5839 5837 5835 5832 5829 5826 5823 5821 5818 5815 5813 5810
5774 5778 5781 5786 5790 5794 5798 5803 5806 5809 5811 5814 5815 5818 5820 5818 5820 5822 5824 5825 5826 5828 5829 5830 5831 5832 5833 5834 5834 5834 5833 5832 5830 5828 5826 5823 5820 5818 5815 5813 5810 5807 5805 5802
5771 5775 5777 5781 5785 5789 5792 5797 5802 5806 5809 5811 5808 5810 5810 5812 5814 5815 5817 5818 5819 5820 5821 5822 5823 5824 5825 5825 5825 5825 5824 5823 5821 5819 5817 5814 5811 5809 5806 5803 5801 5798 5796 5793
5769 5772 5773 5776 5779 5784 5786 5790 5794 5798 5800 5804 5805 5802 5803 5804 5807 5809 5810 5811 5812 5813 5814 5815 5815 5816 5816 5817 5816 5816 5815 5814 5812 5810 5808 5805 5802 5799 5797 5794 5791 5788 5785 5782
5766 5769 5770 5772 5775 5778 5782 5784 5787 5790 5794 5797 5799 5797 5797 5798 5801 5803 5804 5805 5806 5806 5807 5807 5808 5808 5808 5808 5808 5807 5806 5805 5803 5801 5798 5795 5792 5789 5786 5783 5780 5777 5774 5771
5763 5767 5768 5770 5772 5774 5777 5779 5781 5785 5789 5792 5795 5797 5790 5792 5794 5796 5797 5798 5799 5800 5800 5800 5800 5800 5800 5799 5798 5798 5796 5795 5793 5791 5788 5785 5782 5779 5775 5772 5769 5765 5761 5758
5761 5764 5766 5767 5768 5769 5772 5774 5776 5780 5782 5783 5788 5789 5785 5786 5787 5789 5790 5791 5792 5792 5792 5792 5791 5791 5790 5790 5789 5787 5786 5784 5782 5780 5777 5774 5771 5768 5764 5760 5756 5753 5749 5745
5758 5761 5763 5764 5766 5766 5767 5768 5771 5773 5776 5777 5781 5782 5778 5779 5780 5782 5783 5783 5784 5784 5783 5783 5782 5781 5780 5779 5778 5776 5775 5773 5771 5768 5765 5762 5759 5756 5752 5748 5744 5740 5735 5731
5755 5757 5759 5761 5760 5760 5762 5763 5765 5768 5770 5771 5772 5771 5771 5772 5773 5774 5774 5775 5774 5774 5773 5773 5772 5771 5769 5768 5766 5764 5762 5760 5758 5756 5753 5750 5746 5743 5739 5734 5730 5726 5721 5717
5750 5751 5752 5753 5753 5754 5755 5757 5758 5760 5761 5763 5763 5762 5763 5764 5764 5765 5765 5765 5765 5764 5763 5762 5760 5759 5757 5756 5754 5752 5750 5748 5745 5743 5740 5737 5733 5729 5725 5721 5716 5712 5707 5702
5744 5745 5745 5746 5746 5747 5748 5749 5750 5751 5752 5754 5754 5754 5755 5755 5755 5755 5755 5754 5754 5753 5752 5750 5748 5747 5745 5744 5742 5740 5737 5735 5732 5729 5726 5723 5719 5715 5711 5706 5702 5697 5692 5688
5738 5738 5739 5739 5739 5739 5740 5740 5741 5742 5743 5745 5745 5745 5745 5745 5746 5745 5745 5744 5743 5742 5740 5739 5737 5736 5734 5732 5730 5727 5725 5722 5719 5716 5713 5709 5704 5700 5696 5692 5687 5683 5678 5674
5733 5732 5732 5732 5732 5732 5733 5732 5733 5733 5733 5734 5734 5735 5736 5736 5736 5735 5735 5734 5733 5731 5730 5729 5727 5725 5723 5720 5718 5716 5713 5710 5706 5702 5698 5694 5690 5686 5682 5677 5673 5669 5664 5660
5727 5726 5725 5725 5725 5724 5724 5724 5724 5725 5725 5725 5725 5726 5726 5726 5726 5725 5725 5724 5724 5722 5720 5719 5717 5715 5712 5709 5706 5703 5700 5697 5693 5689 5685 5681 5677 5672 5668 5664 5660 5655 5651 5647
5721 5720 5719 5718 5718 5718 5717 5716 5716 5718 5717 5716 5716 5716 5717 5717 5717 5717 5716 5715 5714 5713 5711 5709 5707 5705 5702 5699 5695 5692 5688 5684 5680 5676 5672 5668 5664 5660 5655 5651 5647 5643 5639 5635
5717 5715 5714 5712 5711 5710 5710 5709 5710 5712 5711 5709 5709 5709 5709 5709 5710 5709 5708 5707 5706 5704 5703 5700 5698 5695 5692 5688 5685 5681 5677 5673 5668 5664 5660 5655 5651 5647 5643 5639 5635 5631 5627 5624
5712 5710 5709 5707 5707 5707 5705 5705 5705 5705 5703 5703 5703 5703 5703 5703 5702 5702 5701 5700 5699 5697 5695 5692 5689 5686 5682 5679 5675 5670 5666 5662 5657 5653 5648 5644 5639 5636 5632 5628 5624 5620 5617 5613
5708 5707 5705 5704 5704 5701 5700 5700 5699 5699 5699 5698 5698 5697 5697 5697 5696 5696 5694 5693 5691 5689 5687 5684 5680 5677 5673 5669 5665 5660 5656 5651 5646 5642 5637 5633 5629 5625 5621 5617 5613 5610 5606 5603
5704 5702 5701 5699 5698 5697 5696 5695 5695 5695 5694 5694 5693 5692 5692 5691 5690 5689 5688 5686 5684 5682 5679 5676 5673 5669 5665 5661 5656 5651 5646 5641 5636 5632 5627 5622 5618 5614 5610 5606 5603 5600 5597 5594
5701 5699 5697 5696 5695 5693 5692 5692 5691 5690 5690 5689 5688 5687 5687 5686 5685 5683 5682 5680 5677 5675 5672 5669 5666 5662 5658 5653 5648 5643 5638 5633 5627 5622 5617 5612 5607 5604 5600 5597 5594 5591 5589 5587
5697 5696 5694 5693 5691 5690 5689 5688 5687 5686 5685 5684 5684 5683 5682 5681 5679 5678 5676 5674 5672 5670 5667 5663 5660 5656 5652 5647 5641 5636 5630 5624 5618 5612 5607 5602 5598 5595 5592 5590 5587 5585 5584 5582